Tracking 31011 objects as of 12-Jul-2025
HD Live streaming from Space Station
objects crossing your sky now

STARLINK-31455

Track STARLINK-31455 now!
10-day predictions
STARLINK-31455 is classified as:


NORAD ID: 59309
Int'l Code: 2024-056P
Perigee: 489.3 km
Apogee: 491.0 km
Inclination: 43.0 °
Period: 94.3 minutes
Semi major axis: 6861 km
RCS: Unknown
Launch date: March 24, 2024
Source: United States (US)
Launch site: AIR FORCE EASTERN TEST RANGE (AFETR)
Your satellite tracking list
Your tracking list is empty




NASA's NSSDC Master Catalog

Two Line Element Set (TLE):
1 59309U 24056P   25192.36436879  .00000501  00000-0  27717-4 0  9992
2 59309  43.0013 150.3961 0001237 270.8298  89.2412 15.27578137 74084
Source of the keplerian elements: AFSPC